Regional Weather Roundup
Issued by NWS Cleveland, OH

Home | Current Version | Previous Version | Text Only | Print | Product List | Glossary Off
Versions: 1 2 3 4 5 6 7 8 9 10 11 12 13 14 15 16 17 18 19 20 21 22 23 24 25 26 27 28 29 30 31 32 33 34 35 36 37 38 39 40 41 42 43 44 45 46 47 48 49 50

000
ASUS41 KCLE 251012
RWRCLE
OHIO REGIONAL WEATHER ROUNDUP
NATIONAL WEATHER SERVICE WILMINGTON, OH
600 AM EDT SUN JUN 25 2017

NOTE: "FAIR" INDICATES FEW OR NO CLOUDS BELOW 12,000 FEET WITH NO
SIGNIFICANT WEATHER AND/OR OBSTRUCTIONS TO VISIBILITY.

OHZ001>008-015>018-024>027-034-035-043-044-251100-
   NORTHWEST OHIO

CITY           SKY/WX    TMP DP  RH WIND       PRES   REMARKS
DEFIANCE       FAIR      54  48  80 SW5       30.03S
FINDLAY        FAIR      57  49  74 SW7       30.03S
TOLEDO EXPRESS FAIR      55  50  83 SW6       30.01R
TOLEDO EXEC    FAIR      56  52  86 MISG      30.02R
LIMA           FAIR      55  49  80 SW7       30.06R
$$

OHZ009>014-019>023-028>033-038-089-251100-
   NORTHEAST OHIO

CITY           SKY/WX    TMP DP  RH WIND       PRES   REMARKS
CLE-HOPKINS    FAIR      60  52  74 SW6       30.03S
CLE-LAKEFRONT  FAIR      62  51  67 SW8       30.00S
CUY CO. ARPT   NOT AVBL
LORAIN-ELYRIA  FAIR      56  48  74 SW6       30.02S
ASHTABULA      FAIR      56  54  93 SW3       30.01S
AKRON-CANTON   FAIR      60  51  72 W5        30.04R
WOOSTER        FAIR      55  53  93 CALM      30.05R
MANSFIELD      FAIR      56  53  90 SW5       30.05S
YOUNGSTOWN     MOCLDY    57  55  93 SW3       30.02S
$$

OHZ042-051>053-060>062-070>072-077>081-251100-
  SOUTHWEST OHIO

CITY           SKY/WX    TMP DP  RH WIND       PRES   REMARKS
CINC-COVINGTON FAIR      54  51  90 CALM      30.13R
CINC-LUNKEN    FAIR      54  54 100 CALM      30.13R
HAMILTON       FAIR      52  52 100 CALM      30.13R
DAYTON         FAIR      54  47  77 SW9       30.10R
WRIGHT-PAT AFB CLEAR     56  48  73 S6        30.09R
DAYTON GENERAL FAIR      53  48  83 S5        30.10R
WILMINGTON     FAIR      53  50  89 SW6       30.11R
$$

OHZ036-037-039>041-045>050-054>059-063>069-073>076-082>088-251100-
  CENTRAL AND SOUTHEAST OHIO

CITY           SKY/WX    TMP DP  RH WIND       PRES   REMARKS
COLUMBUS       FAIR      59  50  72 SW5       30.07R
OSU AIRPORT    FAIR      55  50  83 W5        30.08R
BOLTON FIELD   NOT AVBL
RICKENBACK AFB FAIR      54  50  87 SW6       30.08R
NEWARK         FAIR      54  50  86 S3        30.07R
MARION         FAIR      57  49  74 SW7       30.07R
LANCASTER      FAIR      55  51  86 CALM      30.09R
ZANESVILLE     FAIR      57  52  83 SW3       30.07R
NEW PHILLY     MOCLDY    57  56  96 CALM      30.06R
$$



USA.gov is the U.S. government's official web portal to all federal, state and local government web resources and services.